TOPSWRTT 000
TTAA00 KICT 191912

Wichita AWIPS Roundup
National Weather Service Wichita KS
200 PM CDT SAT APR 19 2014

....Central Kansas....
  
CITY           SKY/WX    TMP DP  RH WIND       PRES   REMARKS
RUSSELL        PTSUNNY   81  49  32 S30G40    29.92F HX  80           
SALINA         SUNNY     78  48  34 S26G37    29.99F                  
GREAT BEND     PTSUNNY   81  50  34 S30G39    29.93F HX  80           
ELLSWORTH      SUNNY     81  50  34 S23G33    29.95F HX  80           
MCPHERSON      SUNNY     75  48  38 S30G38    30.01F                  
HAYS           PTSUNNY   81  52  36 S28G36    29.91F HX  80           

....South Central Kansas....
  
CITY           SKY/WX    TMP DP  RH WIND       PRES   REMARKS
HUTCHINSON     PTSUNNY   76  49  38 S25G32    30.01F                  
NEWTON         MOSUNNY   73  46  38 S25G32    30.07F                  
KINGMAN        SUNNY     81  52  36 S22G31    30.01F HX  80           
WICHITA (ICT)  MOSUNNY   78  48  34 S25G35    30.05F                  
JABARA ARPT    MOSUNNY   78  48  34 S22G35    30.05F                  
MCCONNELL AFB  MOSUNNY   78  46  33 S21       30.06F                  
HARPER           N/A     79  52  38 S23G40    30.05F                  
WELLINGTON     SUNNY     81  45  28 S23G30    30.06F                  
WINFIELD       SUNNY     78  48  34 S23G31    30.08F                  
 
....Southeast Kansas....
  
CITY           SKY/WX    TMP DP  RH WIND       PRES   REMARKS
EUREKA         SUNNY     79  43  27 S22G30    30.08F                  
CHANUTE        PTSUNNY   76  46  34 S16G26    30.13F                  
PARSONS        MOSUNNY   76  44  32 S14G24    30.14F                  
COFFEYVILLE    MOSUNNY   75  45  34 S18G26    30.14F                  
INDEPENDENCE   MOSUNNY   73  45  35 S18G25    30.12F                  
FORT SCOTT     SUNNY     79  45  29 S15G22    30.14F                  
PITTSBURG      PTSUNNY   76  45  33 S10G21    30.16S                  

....Western Kansas....
  
CITY           SKY/WX    TMP DP  RH WIND       PRES   REMARKS
GOODLAND       PTSUNNY   70  46  42 NE21G28   29.97F                  
HILL CITY      CLOUDY    78  46  32 SW9G17    29.91F                  
LIBERAL        CLOUDY    73  48  40 S21G30    30.00F                  
GARDEN CITY    CLOUDY    75  44  33 SW15      29.96R                  
DODGE CITY     PTSUNNY   74  46  36 S25       29.97S                  
PRATT          PTSUNNY   77  46  33 S29G35    30.00F                  
MEDICINE LODGE   N/A     79  50  36 S20G35    30.00F                  

....Northeast Kansas....
  
CITY           SKY/WX    TMP DP  RH WIND       PRES   REMARKS
CONCORDIA      MOSUNNY   77  49  37 S23G37    29.97F                  
TOPEKA         SUNNY     77  44  30 S15G28    30.08F                  
MANHATTAN      SUNNY     79  46  31 S22G32    30.02                   
LAWRENCE       MOSUNNY   78  45  30 S20       30.11S                  
OLATHE         MOSUNNY   73  45  36 SW20G26   30.12F                  
EMPORIA        MOSUNNY   76  44  32 S22G33    30.07F                  

....Oklahoma....
  
CITY           SKY/WX    TMP DP  RH WIND       PRES   REMARKS
GAGE           CLOUDY    76  49  38 S25G35    30.03F                  
PONCA CITY     SUNNY     80  44  27 S13G21    30.08F                  
BARTLESVILLE   SUNNY     78  47  33 S13G22    30.13F                  
TULSA          MOSUNNY   77  48  35 S15G23    30.12F                  
OKLAHOMA CITY  PTSUNNY   77  47  34 S13G20    30.10F                  

Note: "fair" indicates few or no clouds below 12,000 feet with no
significant weather and/or obstructions to visibility.
  

USA.gov is the U.S. government's official web portal to all federal, state and local government web resources and services.